Tracking 18984 objects as of 24-Feb-2018
HD Live streaming from Space Station
objects crossing your sky now

GORIZONT 7

Track GORIZONT 7 now!
GORIZONT 7 is classified as:


NORAD ID: 14160
Int'l Code: 1983-066A
Perigee: 36,277.9 km
Apogee: 36,404.7 km
Inclination: 14.6 °
Period: 1,464.2 minutes
Semi major axis: 42712 km
RCS: 1.3456 m2 (large)
Launch date: June 30, 1983
Source: Commonwealth of Independent States (former USSR) (CIS)
Launch site: TYURATAM MISSILE AND SPACE COMPLEX (TTMTR)
aabbcc
Your satellite tracking list
Your tracking list is empty




NASA's NSSDC Master Catalog

Two Line Element Set (TLE):
1 14160U 83066A   18053.59122987 -.00000224 +00000-0 +00000-0 0  9994
2 14160 014.5516 339.0626 0014848 283.4990 270.4093 00.98349748124920
Source of the keplerian elements: AFSPC